Погода в Киле

Германия     54°19′02″N   10°07′26″E
темп.,
°C
ветер,
м/с
пор.,
м/с
влажн.,
%
обл.,
%
осадки,
мм/ч
давл.,
гПа
погр.,
м
11 мая, вт
вт1123:00+12ссв2489100 0.0 1010115
02:00+11в3695100 1.0 1011205
05:00+11всв4899100 7.4 1010328
08:00+10св3798100 11.8 1011249
11:00+11ссв4994100 0.5 1010414
14:00+12св61189100 1.1 1009476
17:00+13ссв6984100 0.0 1009591
20:00+11с51089100 0.0 1007500
12 мая, ср
ср1223:00+10ссз51095100 0.4 1006432
02:00+10сз4998100 1.4 1005362
05:00+9зсз3899100 1.1 1005300
08:00+9з41096100 1.6 1007404
11:00+13з5880100 0.0 1008698
14:00+16зсз676195 0.0 10091116
17:00+14зсз5769100 0.0 1010955
20:00+12зсз4788100 0.0 1011491
13 мая, чт
чт1323:00+9сз369899 0.0 1011160
02:00+7ссз359880 0.0 101198
05:00+7ссз269599 0.0 1010145
08:00+9ссз358898 0.0 1009250
11:00+13с577099 0.0 1008828
14:00+13с487398 0.0 1007742
17:00+13св3672100 0.0 1006552
20:00+11ссз257899 0.0 1005243
14 мая, пт
пт1423:00+10с2486100 0.1 1005122
02:00+10с249690 0.2 1004145
05:00+11св239186 0.0 1004132
08:00+11св118637 0.0 1004249
11:00+15в226998 0.0 1005885
14:00+14юв2276100 0.0 1005370
17:00+13зюз2487100 0.5 1005476
20:00+11зюз4796100 2.2 1005401
15 мая, сб
сб1523:00+9з3498100 3.9 1006213
02:00+8зюз3698100 4.6 1006280
05:00+8зюз4798100 1.8 1006443
08:00+8зюз4897100 2.8 1006469
11:00+9зюз5895100 0.1 1006608
14:00+10зюз5990100 0.3 1006770
17:00+8зюз4994100 1.0 1006627
20:00+9зюз368794 1.1 1005441